Wind_Speed
40 38 37 35 35 34 33 32 31 31 30 30 31 30 29 28 27 27 27 26 24 23 22 22 21 20 18 18 18 17 17 16 15 15 15 15 14 13 13 12 12 11 10 10 10 9 10 10 9 9 9 10 11 12 13 13 14 14 15 15 14 14 15 16 19 20 15 12 11 10 10 11 10 11 12 12 12 14 15 16 15 14 12 11 12
41 39 38 37 36 35 33 33 32 32 32 32 32 32 31 30 28 28 28 27 26 24 23 23 23 21 20 19 19 18 17 16 15 14 14 14 14 14 14 14 14 13 12 11 11 10 11 10 10 9 9 11 11 11 12 13 14 14 14 15 15 14 15 16 19 21 18 13 12 10 10 11 11 11 13 13 15 17 17 17 15 13 13 13 13
41 40 39 38 37 36 35 34 33 34 34 34 34 34 33 31 30 29 28 28 27 25 24 23 23 22 21 21 20 19 18 17 16 15 14 14 14 14 15 15 15 15 14 14 13 13 13 13 11 10 10 11 11 11 12 12 13 14 14 15 15 15 15 16 17 20 20 18 14 12 11 12 12 12 13 14 15 18 18 18 16 14 13 13 12
42 41 40 39 38 37 36 35 35 35 35 35 35 35 35 34 32 31 29 29 29 27 25 24 24 23 23 22 22 21 20 19 18 17 16 16 15 15 16 16 16 16 16 15 15 15 15 15 14 13 12 12 12 12 13 13 13 14 14 14 15 15 15 16 16 18 20 20 17 16 15 14 12 13 14 14 15 17 18 18 17 14 11 12 11
42 42 41 40 40 39 38 37 37 36 36 36 36 36 36 36 35 34 32 31 30 29 28 27 26 26 25 24 23 23 22 21 20 19 18 17 17 17 17 17 17 17 17 17 16 16 16 15 15 14 15 14 13 12 12 13 13 13 13 13 13 14 14 15 16 17 19 20 19 18 17 15 13 13 15 16 17 17 17 17 16 14 10 9 11
42 42 42 41 41 41 40 39 39 38 36 35 35 35 36 37 37 36 35 34 32 31 31 30 29 29 28 27 26 25 24 23 22 21 20 19 19 19 19 19 19 18 18 17 17 17 17 16 16 15 16 15 14 13 12 12 13 13 13 12 13 14 14 14 15 17 18 19 20 19 18 17 15 14 14 17 18 19 20 17 14 13 10 9 11
42 43 42 42 42 42 41 40 39 38 37 35 34 35 36 37 38 38 37 36 35 34 33 32 31 31 31 30 30 29 28 27 25 24 23 22 22 21 21 21 21 20 19 18 17 17 17 17 17 17 17 17 16 14 13 13 13 13 13 13 13 14 14 15 16 17 18 19 19 19 18 17 17 16 15 16 17 18 20 20 16 14 13 11 11
42 43 43 43 43 42 41 41 40 39 38 36 35 34 35 36 37 37 38 38 38 37 36 34 33 33 33 33 33 32 32 31 30 28 27 26 25 24 23 23 22 22 21 20 18 18 18 18 18 18 18 18 18 16 15 14 14 14 14 14 14 15 15 16 16 17 18 19 19 18 18 18 18 17 16 15 16 16 18 20 20 18 16 14 12
41 42 43 43 43 42 41 40 40 39 38 37 36 35 35 35 35 36 37 38 38 38 38 37 36 36 35 35 35 35 35 35 34 33 31 29 28 27 26 25 24 23 23 22 21 20 19 19 19 19 19 19 19 19 18 16 16 16 15 15 16 16 17 17 18 18 19 20 20 19 19 19 18 17 16 15 15 16 18 20 20 19 18 16 13
40 41 42 43 42 41 41 41 40 40 39 38 37 36 35 34 34 35 35 36 37 38 38 38 38 38 37 37 37 37 38 37 36 35 34 33 31 30 29 27 26 25 25 24 23 22 21 21 21 20 20 20 20 20 20 19 19 18 17 17 17 18 19 19 19 20 20 21 20 19 19 20 18 16 16 15 15 16 17 19 20 19 19 17 13
38 41 41 42 42 41 41 41 40 40 39 38 37 36 35 35 34 34 34 34 35 36 37 38 39 38 38 38 38 39 39 38 37 36 35 34 34 32 31 29 28 28 27 26 26 24 23 22 22 22 21 21 21 21 21 21 21 21 20 19 19 19 20 20 20 20 20 21 20 19 20 21 19 17 16 15 15 16 17 18 20 20 19 19 17
35 39 41 40 40 41 40 40 40 40 39 38 37 36 36 36 35 35 34 33 33 34 35 36 37 37 38 38 39 39 39 38 38 37 36 35 35 34 33 31 30 29 29 28 28 27 25 24 23 23 23 23 22 22 22 23 23 22 21 20 20 20 20 20 20 20 20 21 21 20 20 21 20 18 16 15 15 16 18 19 20 19 19 19 19
32 37 39 40 40 40 39 40 40 39 39 38 37 36 36 36 35 35 34 34 33 34 33 34 34 35 36 37 38 38 38 38 38 37 37 36 35 35 34 33 32 31 30 30 29 28 26 25 24 24 24 24 24 23 24 24 24 24 23 22 21 21 21 21 20 20 20 21 22 23 21 21 21 19 16 16 17 18 19 20 20 20 19 19 20
27 32 37 39 40 39 39 39 39 38 37 37 37 36 35 35 34 34 33 34 34 34 33 33 34 34 34 35 35 36 37 37 37 37 36 35 35 35 35 34 33 32 31 30 29 27 27 26 26 25 25 25 25 24 24 24 24 25 24 24 23 23 22 21 20 20 21 21 23 24 22 22 23 21 18 18 20 20 21 22 21 21 20 20 20
20 24 30 36 38 39 39 38 38 38 37 36 37 36 36 34 33 33 33 33 33 32 32 33 33 33 34 34 35 36 36 36 36 36 36 35 34 34 34 34 33 32 30 29 28 27 26 27 26 26 25 25 25 25 25 25 25 25 25 26 25 24 24 23 22 21 21 22 23 24 24 23 23 23 21 20 21 22 22 23 23 23 22 21 21
14 17 22 29 34 37 38 38 38 37 36 37 37 37 36 35 33 32 32 33 32 32 33 33 33 33 33 34 35 36 35 35 35 35 35 34 33 33 34 34 33 32 30 28 27 27 26 27 27 26 26 25 25 25 25 25 25 25 26 26 26 26 26 25 24 23 23 24 24 25 25 24 24 24 24 23 23 23 24 25 24 23 23 23 22
11 14 16 21 28 33 36 37 38 38 37 38 38 37 36 35 34 33 33 32 32 32 32 32 32 32 32 33 34 34 33 32 33 34 34 33 33 33 33 33 33 32 30 28 27 27 27 27 27 27 27 26 26 25 25 25 25 25 26 26 26 27 28 27 26 25 25 25 25 25 25 24 24 24 24 24 24 24 25 26 25 22 22 24 24
8 12 15 17 22 28 32 35 37 38 38 39 38 37 37 35 34 34 33 32 32 31 32 32 33 33 33 33 33 33 32 30 29 31 31 32 33 33 33 32 32 32 30 28 27 27 27 27 27 28 28 28 27 26 25 25 26 26 26 26 26 28 29 28 28 27 26 25 25 25 24 23 23 22 22 22 22 22 24 25 24 22 22 23 24
9 10 14 17 19 23 28 32 34 36 37 38 38 38 37 36 36 35 34 33 32 32 33 34 34 34 34 33 33 33 32 30 28 29 29 30 32 32 32 32 33 32 31 29 28 28 27 27 27 29 29 29 27 26 26 26 26 26 26 26 28 30 30 29 28 28 27 27 26 25 24 23 22 21 21 20 20 21 23 24 23 23 23 24 22
11 11 13 16 19 21 24 28 31 33 34 35 35 35 36 36 36 36 36 35 34 34 34 35 35 35 34 34 33 33 32 30 28 28 27 28 29 31 32 33 33 32 31 30 29 28 27 27 28 29 29 28 28 26 25 25 26 26 26 27 29 30 29 28 28 27 27 27 27 26 25 23 22 22 21 21 21 22 23 23 23 23 24 23 21
13 13 13 15 17 20 22 25 28 30 32 33 33 33 33 34 35 36 36 36 36 36 35 36 36 36 35 35 35 34 32 30 28 27 27 27 28 29 31 32 32 31 31 30 30 29 28 27 27 28 28 28 27 25 24 24 24 25 26 28 29 28 27 27 27 27 26 27 27 27 26 25 25 24 23 23 23 23 23 23 23 23 24 23 21
16 14 13 15 18 19 20 20 22 25 28 31 32 33 33 34 34 35 35 36 37 37 36 36 37 37 37 37 37 35 33 31 29 28 28 27 27 28 30 31 30 30 31 31 31 30 29 28 27 27 26 26 26 24 23 23 23 24 25 26 26 25 24 25 26 26 26 26 26 27 28 27 27 27 26 25 25 25 24 23 23 24 24 23 21
18 17 13 13 17 18 18 19 21 22 24 27 30 32 33 35 35 36 36 37 38 38 38 38 38 39 39 39 38 37 35 32 31 29 29 28 28 28 28 28 29 30 31 31 31 30 29 28 27 25 24 24 24 23 23 23 23 23 23 22 22 21 21 23 25 26 26 26 26 28 29 29 29 29 28 28 26 25 24 23 24 25 25 24 22
20 19 15 13 13 13 14 19 24 25 24 24 26 28 30 33 35 37 37 38 39 40 40 39 40 40 40 39 39 37 36 34 32 30 29 29 28 28 27 26 27 28 30 31 30 30 29 28 27 25 24 24 23 22 22 23 23 23 22 21 20 20 21 24 26 27 27 27 28 29 30 30 30 30 30 29 27 26 25 25 26 27 26 25 24
22 21 16 14 14 13 12 16 22 26 26 26 26 27 27 29 31 34 36 38 39 40 40 39 40 41 40 40 38 37 36 35 33 31 29 29 29 28 27 26 26 27 29 30 29 29 28 27 26 25 25 24 23 23 23 24 24 24 23 22 23 23 24 26 27 28 29 30 31 31 32 31 30 30 29 28 27 27 27 27 27 27 27 26 25
23 22 18 14 13 13 13 14 18 23 27 28 29 29 28 28 29 31 33 35 37 38 39 39 40 41 41 39 38 36 35 35 35 33 31 30 30 29 28 27 27 27 28 28 28 28 27 26 26 26 25 25 25 25 26 26 25 25 25 26 27 27 27 28 29 30 31 32 32 33 33 32 31 30 29 28 28 28 28 28 28 28 27 26 26
21 22 20 17 13 12 13 13 15 20 26 30 31 32 31 31 30 30 31 33 34 36 37 39 41 42 41 39 37 35 34 34 35 35 34 33 31 29 29 28 27 28 29 29 29 29 28 28 27 28 28 28 28 29 30 29 29 29 29 30 30 30 30 30 30 31 32 32 33 33 33 32 32 32 31 29 29 28 27 27 28 27 27 26 27
21 22 21 19 16 13 12 13 14 17 23 28 32 34 34 34 34 34 33 33 33 34 36 37 38 38 37 36 36 35 33 32 32 34 35 33 30 28 27 27 28 29 29 29 29 30 30 30 30 31 31 31 32 33 33 33 33 32 32 32 32 31 31 31 32 33 33 33 33 33 33 33 33 32 32 30 29 28 28 28 28 26 25 26 26
22 23 22 21 18 15 13 13 15 17 20 24 29 33 35 36 37 37 37 36 35 35 35 35 35 34 33 34 35 36 34 31 28 27 28 28 27 26 25 24 25 26 24 25 27 29 31 32 33 33 33 33 33 34 35 35 35 34 33 33 32 32 32 33 35 35 34 34 34 35 34 34 34 33 32 31 30 29 29 29 27 24 24 25 25
24 25 25 23 20 18 15 14 14 16 19 22 26 30 33 35 37 39 40 40 39 38 38 38 36 34 34 34 34 33 32 29 25 23 24 26 27 26 24 23 23 22 21 23 27 30 32 34 35 34 34 34 34 34 35 36 36 35 34 34 33 33 34 35 36 36 35 34 35 35 35 35 35 34 32 32 31 30 30 28 25 23 23 24 24
25 27 27 24 21 19 17 15 15 17 19 21 24 27 29 32 35 37 39 40 39 39 39 39 39 37 36 36 36 35 33 30 28 27 27 28 28 27 26 25 24 23 22 24 28 30 32 35 36 35 34 35 35 34 34 35 36 35 35 34 35 34 35 36 36 36 35 36 36 36 36 35 35 35 34 33 33 32 30 27 25 24 24 24 23
25 28 27 25 22 20 19 17 16 16 18 20 23 25 28 29 31 33 35 37 37 38 39 40 39 39 38 38 39 39 36 33 31 31 30 29 29 29 28 27 25 24 24 26 28 30 32 35 36 34 34 34 33 32 33 34 34 34 34 35 35 35 34 35 35 35 35 36 36 36 36 36 36 36 36 36 36 33 30 28 27 27 27 26 25
24 26 27 26 23 21 21 20 19 18 18 20 23 25 27 29 30 30 31 32 34 36 38 40 40 39 39 39 41 40 37 34 34 36 35 33 32 31 30 29 27 26 26 28 31 32 33 35 35 33 32 32 31 30 31 32 32 33 34 34 35 34 33 33 33 33 34 35 35 35 36 36 36 37 37 37 36 34 31 30 30 29 28 27 26
23 25 26 26 25 23 22 22 22 21 19 19 23 26 28 29 30 30 29 30 32 34 36 38 39 39 38 39 40 39 37 36 38 40 39 38 36 33 31 30 30 30 30 31 33 33 33 35 35 33 32 30 29 28 29 30 31 32 33 33 33 34 34 33 33 33 34 34 34 35 35 35 35 36 37 37 36 34 33 33 33 31 29 26 27
23 24 25 26 27 27 26 25 25 25 23 20 21 25 29 30 31 31 30 30 31 34 35 35 36 37 38 39 39 39 37 37 39 39 40 40 39 36 33 32 33 33 33 34 35 35 35 35 35 33 31 30 29 29 30 30 31 32 32 33 34 35 35 35 35 35 35 35 35 36 35 35 34 35 38 39 38 36 36 36 35 31 27 23 25
23 25 26 27 28 29 29 29 28 28 26 22 20 23 28 31 32 32 31 31 32 34 34 32 32 33 36 37 39 39 38 38 39 39 40 41 41 39 37 37 37 37 36 36 36 36 36 36 36 34 32 31 31 31 31 31 31 32 32 34 35 36 37 37 37 36 35 36 36 36 35 34 33 33 36 38 37 36 36 35 33 29 23 19 21
24 26 27 28 28 29 30 30 29 29 27 25 22 23 27 32 34 34 33 32 33 33 32 30 30 31 33 35 36 36 36 37 38 39 41 42 42 43 42 42 40 39 38 38 37 37 37 37 37 36 34 33 33 32 32 32 32 32 32 33 35 36 37 37 37 37 37 37 37 37 35 33 31 30 31 31 31 32 32 32 30 26 21 17 19
23 24 25 26 28 29 30 30 30 30 29 27 25 24 27 31 35 36 35 34 34 33 31 30 30 31 33 34 34 34 34 35 37 39 41 42 43 44 44 43 42 41 39 38 37 37 38 38 38 38 36 35 34 32 32 32 31 31 30 31 33 34 35 36 37 39 39 38 38 38 36 33 30 29 27 26 26 28 29 29 28 25 22 20 22
22 22 22 23 24 26 29 30 30 30 29 28 26 26 28 31 35 37 36 35 34 33 31 30 31 32 32 33 33 33 34 35 36 37 39 40 41 42 43 42 42 41 40 38 37 37 37 38 39 39 38 37 35 33 32 31 30 29 29 31 33 34 35 35 37 39 40 39 39 39 37 33 31 28 26 25 25 25 25 26 26 25 24 24 23
22 21 21 20 21 22 24 26 28 29 29 28 28 27 28 30 33 35 36 35 34 33 31 31 31 31 32 33 34 33 34 35 35 35 36 37 38 40 41 42 42 41 40 39 39 38 37 36 37 38 38 37 36 34 33 31 30 28 29 32 34 34 35 36 37 39 40 40 40 39 37 34 30 27 26 24 23 22 22 23 24 23 22 22 22
21 20 19 18 19 20 21 23 25 27 28 28 28 28 29 30 31 32 34 34 34 33 32 32 32 31 31 32 32 33 34 35 35 35 36 36 37 38 41 42 41 40 39 39 39 40 39 37 36 37 38 38 37 35 35 35 32 30 30 32 33 34 36 38 39 38 39 40 41 39 37 33 29 27 26 25 23 21 20 21 21 19 17 18 20
18 18 18 17 17 19 20 21 21 22 24 26 27 28 29 29 29 30 31 32 33 32 32 32 32 31 31 32 32 33 35 36 36 36 36 37 37 38 39 39 38 37 37 37 37 39 40 39 37 37 39 41 40 38 38 37 35 33 32 32 32 32 34 37 38 38 38 40 40 38 34 31 27 26 25 24 22 21 20 21 20 18 17 18 20
15 16 16 16 16 18 18 18 18 18 21 24 26 27 28 28 28 27 28 29 31 31 30 30 30 30 30 31 32 34 35 35 36 37 37 38 38 37 37 38 38 37 36 36 36 36 38 39 38 37 38 41 42 40 38 38 37 35 33 32 31 31 32 35 37 38 39 39 37 34 31 28 25 24 23 22 21 21 20 19 18 18 18 18 18
13 14 15 15 15 15 16 16 15 15 17 19 23 25 26 26 26 26 26 27 28 29 29 29 28 26 26 27 29 32 33 33 33 34 36 38 38 38 38 38 38 37 35 34 34 34 35 36 37 37 38 40 41 39 38 38 37 35 34 32 30 30 32 36 38 38 38 35 32 29 29 27 25 24 24 23 21 20 19 17 16 16 16 16 16
12 13 14 14 13 13 13 13 13 13 14 15 17 20 22 23 23 23 25 26 26 26 26 26 26 26 25 25 27 29 30 30 30 30 32 33 35 36 36 36 37 36 34 32 30 30 31 33 34 36 38 39 39 38 38 38 36 34 33 32 29 28 30 35 36 33 28 25 24 25 27 26 24 22 21 21 20 18 17 15 14 14 14 14 15
12 12 13 13 12 11 12 12 12 12 12 13 13 14 15 17 18 18 19 21 22 22 21 22 24 25 26 27 27 28 28 29 29 29 29 31 32 33 34 34 34 33 31 29 27 26 28 29 31 34 36 37 37 37 36 35 33 31 30 29 27 26 28 30 28 24 21 20 20 22 22 21 19 18 17 17 17 16 14 13 13 13 13 13 14
13 11 11 12 11 11 11 11 12 12 11 11 11 11 11 11 11 12 13 15 17 19 19 18 19 21 22 24 25 26 27 27 28 28 29 31 31 31 31 31 30 29 28 27 25 24 26 28 30 32 33 32 31 31 30 28 26 24 23 22 22 22 22 21 18 17 16 16 17 17 18 18 17 16 15 14 13 13 12 11 11 12 12 13 13
12 10 9 10 10 10 10 10 11 12 11 10 10 10 9 8 7 7 8 10 12 14 15 16 16 16 18 19 22 23 24 25 26 27 28 28 28 28 27 27 27 26 26 25 24 24 26 27 28 27 25 21 18 17 17 17 16 16 16 17 18 17 16 14 14 14 13 12 13 14 15 16 16 15 14 13 12 11 9 9 9 11 13 15 15
10 8 8 8 7 8 9 10 10 11 11 10 8 7 6 5 4 3 4 6 8 10 11 13 13 14 16 17 18 18 20 21 22 23 25 25 25 24 23 23 22 22 23 23 22 23 25 25 23 21 19 16 13 11 12 13 15 17 19 20 19 17 16 17 17 16 15 15 14 13 12 13 14 14 13 13 12 11 9 9 11 13 14 15 15
7 7 7 6 5 4 6 7 8 8 8 7 6 4 3 2 2 1 1 2 4 6 8 10 11 13 15 16 15 14 15 17 19 20 21 21 21 20 19 19 18 18 19 20 21 22 22 21 20 18 17 17 16 17 18 20 21 22 23 22 20 19 20 21 22 21 19 17 15 13 11 11 11 11 10 9 9 8 9 10 10 11 11 12 13
4 6 5 3 1 1 2 3 4 4 5 4 4 3 3 3 4 5 5 5 7 8 9 10 12 14 15 16 15 15 16 18 19 20 21 21 21 20 20 20 21 22 22 24 25 25 25 24 24 24 25 25 25 25 25 25 24 24 23 21 21 21 20 20 20 19 17 14 12 11 9 9 8 7 7 5 4 5 6 7 8 9 9 10 10
Wind_Direction
233 234 235 236 237 238 239 238 236 234 233 232 232 233 236 236 237 239 239 238 237 236 235 233 233 233 230 229 229 232 233 236 241 246 250 252 254 255 257 257 258 258 257 258 260 263 268 269 270 273 277 279 279 278 276 277 280 284 289 293 297 302 306 307 305 307 316 327 323 322 323 325 332 337 338 339 343 345 346 346 345 340 332 325 325
234 235 236 237 238 239 240 241 239 237 235 234 232 233 235 237 238 238 239 239 238 237 236 235 235 234 231 228 227 228 231 235 240 245 250 254 256 257 258 259 261 263 264 264 266 268 271 273 274 276 277 279 281 281 280 279 280 283 287 290 293 296 300 301 301 304 310 318 321 320 321 321 326 334 337 339 341 342 343 345 346 341 332 328 334
235 236 237 238 239 241 241 242 242 241 238 236 234 234 235 237 238 239 239 239 240 240 238 237 236 235 232 228 226 226 230 235 239 244 250 255 258 260 259 260 261 263 266 268 271 273 274 276 279 281 279 278 279 280 283 283 283 284 287 289 292 294 296 297 298 301 305 310 315 318 319 320 322 329 334 338 340 340 340 343 345 345 336 331 340
235 236 237 238 240 241 242 243 243 243 242 239 237 236 236 237 238 239 239 240 241 241 241 240 238 237 235 231 229 230 234 237 240 245 250 255 259 261 261 261 261 262 264 267 269 271 273 275 278 281 280 278 276 277 282 285 286 287 288 291 293 294 294 295 296 299 301 305 310 313 316 318 319 325 329 332 335 336 337 341 345 348 342 334 339
235 236 237 238 240 241 242 243 244 244 244 243 241 238 238 238 239 239 240 241 241 241 242 242 242 240 239 237 237 238 241 243 246 249 253 258 262 265 266 265 264 263 263 264 265 267 270 272 274 276 276 276 276 275 277 280 282 284 287 289 290 290 290 291 294 296 296 300 304 308 312 314 314 320 326 328 330 332 333 339 347 351 350 339 335
234 236 237 238 240 241 242 244 245 246 247 247 246 243 240 240 240 241 241 242 243 244 243 244 244 244 243 243 245 246 248 250 251 253 257 261 266 270 271 270 269 268 266 265 264 265 266 268 269 270 270 271 272 272 272 274 275 277 281 283 282 282 282 285 289 292 293 296 299 302 306 309 309 313 322 328 332 332 329 333 345 350 350 342 331
234 235 237 239 240 242 244 245 246 247 249 250 250 249 246 243 242 243 244 244 245 246 246 246 246 247 248 249 250 252 253 255 256 257 259 261 265 269 271 273 273 273 272 270 267 265 265 266 266 265 266 267 267 267 267 267 269 271 274 277 277 277 278 280 283 286 289 291 293 296 299 301 304 308 315 325 332 332 327 327 335 342 344 342 332
234 235 237 239 241 243 245 247 248 249 250 252 252 252 250 247 245 245 246 246 247 247 248 249 249 249 251 252 253 255 256 258 258 258 259 260 262 265 267 270 272 273 274 274 272 269 266 265 265 264 264 265 265 264 263 263 265 268 271 274 276 277 278 279 281 282 285 287 289 291 292 292 297 302 308 319 328 330 328 327 330 333 335 339 336
235 236 237 239 242 245 246 247 248 249 250 251 252 253 252 251 249 247 247 248 249 249 249 250 251 252 253 254 255 257 258 259 259 260 260 260 261 263 264 266 267 269 271 273 274 273 269 266 264 264 264 263 263 262 260 259 261 265 268 272 274 278 280 281 281 282 282 283 284 286 286 286 290 295 302 315 327 330 329 328 327 325 325 329 333
237 237 238 241 243 245 246 247 248 249 250 251 252 253 253 252 252 250 249 249 250 251 251 251 252 253 254 255 256 257 258 259 259 260 260 261 262 263 263 263 264 265 267 269 272 272 271 267 263 263 264 262 261 260 259 258 259 261 265 267 270 275 278 280 282 283 282 281 281 281 281 280 283 289 298 312 323 325 326 326 325 321 319 320 324
238 239 240 242 244 245 246 247 248 249 251 252 253 253 254 253 253 253 252 251 251 252 252 253 253 254 255 256 257 259 259 260 260 260 260 261 262 263 263 263 263 263 264 266 269 271 272 268 263 261 261 260 259 259 259 259 259 260 262 263 266 270 273 277 281 283 281 278 276 275 276 278 281 286 296 310 318 318 321 324 324 321 317 315 318
232 240 242 243 243 245 246 247 248 249 251 252 253 254 254 254 254 254 254 253 253 253 253 253 254 254 255 256 257 258 259 260 260 261 261 261 262 263 264 264 264 264 265 265 267 270 270 268 264 259 257 257 258 257 258 259 260 260 261 261 262 263 266 271 276 279 279 276 273 271 273 278 282 286 297 308 310 310 314 319 320 318 313 309 310
225 234 241 243 244 245 246 247 248 249 251 252 253 253 253 254 255 255 256 256 256 255 255 255 255 255 255 256 256 257 258 259 259 260 260 261 262 263 265 265 265 265 265 266 267 267 267 266 263 258 255 255 255 256 256 256 258 259 259 260 259 259 262 266 269 273 274 273 273 273 274 279 281 284 294 302 301 302 306 308 309 309 306 303 302
224 229 236 240 244 245 245 246 248 249 251 252 252 252 253 254 255 256 257 257 257 257 257 257 257 257 257 257 258 257 257 257 257 258 258 259 260 262 264 265 265 266 265 265 265 265 264 262 260 257 253 252 253 254 254 254 255 255 256 256 256 256 259 261 262 265 267 268 271 273 275 278 280 281 287 290 292 295 299 299 299 300 300 299 297
229 230 233 237 241 244 245 246 248 249 251 251 251 251 253 254 255 256 257 257 257 258 258 259 259 259 259 259 260 260 258 256 256 256 256 257 258 260 263 264 264 264 263 263 263 262 260 259 258 255 253 251 250 251 252 253 253 254 254 253 253 254 254 255 256 258 260 261 265 268 271 273 274 276 278 280 284 289 293 294 294 295 297 298 295
235 234 233 234 237 240 243 246 248 249 250 249 250 251 252 253 254 255 256 257 258 259 259 259 260 260 260 261 262 262 260 257 256 255 255 255 256 258 260 261 261 262 261 260 260 259 257 257 256 254 252 250 248 248 249 252 253 254 254 253 253 253 252 252 254 255 256 258 260 263 266 268 269 270 272 275 278 282 287 289 289 292 296 296 295
244 237 233 231 231 234 238 242 245 248 248 248 249 251 252 254 255 255 255 257 258 259 259 259 259 260 261 261 262 262 261 259 257 256 254 254 255 256 257 257 258 259 258 258 258 257 256 255 254 254 251 248 246 246 248 253 255 255 255 254 254 254 251 250 252 253 255 258 261 263 265 267 268 269 271 275 277 279 281 282 284 289 293 293 295
270 247 237 231 228 228 231 235 239 242 245 246 248 251 252 254 255 255 256 257 259 260 261 261 261 262 262 262 262 263 264 263 261 259 256 255 255 255 255 256 257 258 258 257 257 256 254 253 253 253 250 247 245 245 248 254 256 256 256 256 256 255 251 249 250 253 255 257 260 263 265 266 267 269 270 273 275 275 274 276 280 286 288 290 293
299 274 251 239 233 230 229 230 233 236 239 243 246 249 251 253 255 255 256 258 260 261 262 262 263 264 264 264 264 265 265 265 264 262 259 257 256 254 254 254 255 256 256 256 255 255 253 251 251 251 250 247 245 246 249 253 256 256 256 257 257 254 251 250 252 254 255 257 259 261 262 263 264 266 267 267 268 269 269 272 277 281 283 285 287
299 290 274 254 242 237 234 233 233 233 235 238 242 246 249 251 253 254 255 257 259 260 261 262 264 265 266 266 265 265 265 264 263 262 261 259 257 254 253 253 252 252 253 254 254 253 252 250 249 249 249 248 247 248 250 253 256 256 255 255 255 253 253 255 257 257 258 258 259 260 261 261 260 261 262 262 263 264 266 270 275 279 280 280 277
301 284 281 271 255 245 240 238 237 236 237 238 239 242 245 248 250 252 254 256 257 259 260 261 263 265 265 265 265 265 264 263 262 262 261 259 257 254 252 250 249 250 251 252 252 252 251 249 247 247 248 249 249 250 252 253 256 257 256 255 255 256 258 260 261 262 262 261 260 259 259 258 257 258 259 260 261 262 266 271 277 279 278 274 269
310 292 280 274 267 258 249 243 240 240 241 241 241 242 244 246 248 250 252 254 255 257 259 261 262 264 265 264 265 264 264 263 261 261 260 258 257 255 252 250 248 249 251 252 251 251 249 247 247 247 248 250 250 250 252 254 256 257 257 258 259 260 262 262 263 263 262 261 260 259 258 256 255 255 257 259 261 263 268 274 278 279 275 270 265
307 302 296 282 273 268 260 252 250 248 246 245 244 244 245 245 247 249 250 252 254 255 257 259 260 261 262 262 263 263 262 261 260 259 259 258 256 255 254 252 250 249 251 251 251 250 250 248 247 247 248 249 250 249 250 253 255 257 258 259 261 261 261 260 259 260 261 261 261 260 257 255 255 254 256 258 261 266 272 276 277 274 269 266 264
298 301 306 303 292 278 259 248 247 248 246 245 244 243 243 243 245 247 248 250 251 253 255 256 256 258 260 260 261 260 260 259 259 259 259 258 256 255 254 253 252 250 250 250 250 251 250 249 248 248 249 250 250 250 252 254 255 256 257 258 257 257 257 256 257 259 262 263 262 261 259 258 257 256 256 259 264 268 272 272 271 268 266 265 266
294 296 301 306 307 299 275 252 245 242 239 238 239 240 241 241 241 243 244 246 248 250 251 253 254 256 258 259 259 259 258 258 259 259 259 259 257 255 254 253 252 252 251 250 250 250 250 249 250 250 250 251 252 253 254 254 254 255 255 255 253 252 254 255 257 260 262 262 262 263 262 261 261 261 262 264 267 267 267 266 265 264 263 263 265
288 292 295 300 304 302 290 270 254 245 238 234 234 236 237 239 240 241 242 243 245 247 248 250 251 253 255 256 257 258 258 258 258 258 258 258 257 256 256 255 253 253 252 251 250 250 250 251 251 251 251 252 253 254 253 254 255 255 254 252 251 252 253 256 259 261 263 264 265 265 266 267 269 269 268 268 266 264 262 260 260 259 260 262 266
282 286 289 292 295 297 294 284 268 253 243 237 234 233 233 236 239 240 240 241 244 246 247 247 248 250 252 254 255 256 257 258 258 258 257 257 257 257 256 256 253 251 250 249 247 247 248 249 250 251 252 253 253 253 254 254 254 253 252 252 253 254 256 259 261 264 266 267 267 268 269 271 272 272 271 269 266 262 259 256 256 257 259 263 268
284 283 284 286 287 288 289 288 282 267 249 239 236 234 232 233 236 239 240 241 243 246 247 247 247 248 250 252 252 252 254 256 257 258 258 259 259 258 256 256 254 253 252 251 249 248 248 249 250 250 251 252 253 253 254 254 253 253 254 255 257 258 259 260 261 263 264 265 266 267 268 270 271 272 272 269 264 260 255 253 253 254 257 263 268
287 284 283 283 283 282 282 281 282 277 262 245 237 234 233 233 234 238 241 241 242 245 248 250 251 252 253 254 253 251 253 255 258 260 261 261 261 260 259 259 259 259 261 260 256 251 249 248 248 248 249 250 252 253 254 255 256 257 258 259 260 259 258 257 258 258 260 263 264 265 266 267 269 269 268 264 260 257 252 250 251 254 259 265 267
287 285 283 282 281 281 283 280 276 274 268 255 244 237 235 234 235 238 241 242 243 245 248 251 254 256 257 258 258 257 259 263 265 265 264 263 262 262 261 262 262 264 265 263 256 251 249 248 247 248 249 250 251 253 255 257 259 260 261 261 261 259 257 256 256 256 259 261 262 263 264 265 266 266 264 259 256 251 248 248 253 258 262 266 266
285 283 283 283 282 282 285 285 278 270 265 260 253 245 240 237 235 237 241 244 244 245 247 250 253 255 257 259 261 262 264 266 265 264 264 264 263 262 262 262 262 262 262 260 255 251 248 248 247 247 248 250 251 253 256 259 262 263 264 263 262 260 258 257 256 256 257 259 260 262 264 265 266 267 263 258 253 248 246 247 252 255 258 261 263
281 282 284 285 284 283 284 288 286 274 263 259 256 252 250 247 241 238 239 243 246 246 245 246 249 251 253 256 258 260 262 262 262 262 263 263 263 263 263 263 263 262 260 258 255 251 249 247 247 246 247 249 251 253 256 260 262 264 265 264 263 260 258 257 256 256 256 258 260 262 264 266 267 267 264 259 255 251 248 248 250 252 253 254 256
276 278 283 285 285 284 285 287 287 279 267 259 255 252 252 254 253 249 244 243 246 248 248 247 246 247 248 251 255 258 260 260 260 262 263 264 265 265 265 264 263 260 257 255 254 252 250 248 247 246 247 248 251 253 256 259 260 262 263 263 262 260 258 258 258 258 259 261 263 265 267 268 268 267 266 263 259 256 255 254 253 253 252 253 255
271 272 278 282 281 281 279 278 277 275 270 262 254 250 250 252 256 258 255 249 248 250 251 251 249 248 247 249 252 256 257 257 258 260 261 263 264 265 264 262 259 255 252 252 253 252 251 250 248 247 247 248 250 251 253 254 255 257 258 259 258 257 258 259 260 261 262 264 266 267 269 270 267 265 264 263 261 260 259 257 254 251 250 254 258
268 267 272 274 273 273 271 269 269 271 272 269 259 252 250 250 252 256 258 255 253 252 252 253 252 250 248 250 253 255 255 255 255 257 259 260 260 259 257 254 253 251 250 251 252 252 252 251 249 248 247 247 247 247 248 249 250 251 253 253 254 256 259 261 263 264 266 268 270 271 271 270 267 263 261 261 262 261 259 259 259 256 251 254 257
270 269 271 271 271 272 272 270 270 271 273 273 267 257 252 250 250 252 254 255 254 253 252 254 255 253 250 251 254 255 255 254 255 256 257 257 257 255 252 251 252 252 252 252 254 254 254 253 252 250 249 248 247 247 246 246 247 248 249 250 253 258 262 264 265 267 270 271 273 272 271 269 267 265 262 262 263 262 259 260 262 260 255 253 251
272 273 274 274 273 273 272 270 271 272 272 272 269 261 253 248 247 249 251 252 253 253 253 255 258 257 252 249 251 254 255 255 255 254 254 254 254 252 252 252 253 253 253 255 256 257 257 257 256 254 253 252 251 251 251 250 250 249 249 250 253 257 260 264 266 269 271 272 272 271 269 267 267 266 264 263 264 262 258 255 256 256 254 250 240
272 274 275 275 274 272 270 269 270 271 272 270 267 263 254 247 245 246 248 249 251 252 253 255 257 256 252 250 253 256 258 257 255 253 252 252 251 250 251 252 253 253 254 256 258 259 261 262 261 259 258 257 256 256 255 254 254 254 253 252 252 254 257 262 266 268 270 271 272 271 269 266 266 264 261 259 258 256 252 251 250 249 249 242 231
270 273 274 273 272 270 270 270 270 271 271 270 267 263 257 249 244 244 246 248 250 251 252 254 255 254 254 256 259 262 261 260 258 256 254 253 253 253 252 252 252 254 256 258 259 261 262 264 264 262 261 260 259 258 257 255 255 255 254 252 252 254 256 258 262 266 269 269 270 269 268 267 264 260 254 250 249 246 244 245 246 245 246 242 231
271 273 272 273 273 273 273 273 272 271 272 271 268 264 259 252 246 244 246 248 250 250 251 254 254 254 258 263 265 266 266 266 265 263 260 259 258 256 254 253 253 254 256 258 260 261 262 264 265 264 263 261 260 259 258 256 254 252 251 251 253 255 256 256 258 261 265 267 267 267 267 267 262 252 243 241 241 239 238 240 241 241 241 236 227
273 273 273 276 280 281 280 278 275 272 270 269 266 263 259 255 250 245 245 248 250 251 252 253 253 256 262 267 268 268 269 269 269 267 264 262 260 259 257 255 254 254 256 258 261 262 263 263 264 265 264 262 260 258 257 256 253 250 248 249 252 255 258 259 258 257 259 261 263 264 265 264 256 245 239 238 236 233 232 233 232 231 229 224 222
277 277 278 282 285 285 284 283 280 274 268 265 263 260 258 255 252 248 247 247 249 251 253 254 254 257 262 266 267 267 267 266 265 264 263 262 261 259 258 257 256 257 258 259 262 263 264 263 263 264 264 262 260 258 257 255 253 250 248 249 252 256 258 260 260 259 257 258 260 263 263 259 250 242 239 237 232 227 225 223 220 217 216 217 221
285 287 286 286 287 287 286 287 286 281 272 264 260 258 255 253 252 251 252 252 252 252 255 256 256 257 260 263 264 265 262 258 257 257 258 259 259 258 257 258 259 260 260 260 261 262 263 263 263 264 266 266 263 260 259 257 255 253 252 252 254 257 258 259 258 257 257 257 259 259 257 251 243 239 236 231 225 220 218 216 214 213 213 215 218
294 293 292 293 292 292 293 293 292 290 282 272 263 259 255 252 250 250 252 255 257 257 258 258 259 260 261 261 262 262 260 257 255 253 253 254 254 254 255 257 259 260 261 262 262 262 263 263 263 264 267 267 265 263 261 259 256 255 255 255 255 256 258 258 256 255 256 257 257 256 252 246 239 233 228 221 215 212 211 210 212 213 212 215 218
300 296 295 298 298 298 300 301 301 299 294 285 274 265 258 254 252 250 250 253 256 260 262 263 263 264 264 263 261 262 262 261 259 256 254 254 254 254 255 255 257 259 261 261 261 262 263 264 264 265 264 263 262 261 260 258 255 253 253 253 252 250 250 252 254 257 259 256 252 250 247 239 230 223 219 212 206 204 205 208 211 213 216 221 226
300 297 296 299 302 304 309 314 316 314 308 300 292 281 269 260 256 254 254 253 253 254 258 261 261 262 263 264 263 262 261 259 258 257 257 258 258 257 256 255 255 256 257 258 259 261 263 264 265 264 260 257 256 257 256 254 250 247 244 243 241 240 241 246 253 260 263 260 253 247 239 228 215 210 209 206 202 200 201 204 211 217 223 230 233
300 299 295 298 305 311 317 324 329 327 321 314 309 304 295 281 270 266 265 261 254 249 246 245 246 248 251 254 256 255 253 251 250 251 251 252 252 252 251 250 250 251 253 255 257 259 260 258 255 252 250 249 251 253 251 247 243 239 234 228 225 227 229 233 237 238 241 244 243 238 230 221 212 207 206 204 202 200 200 203 211 222 230 233 232
301 299 291 296 309 317 323 332 337 336 332 330 326 322 320 317 307 293 282 272 260 250 242 235 231 229 229 233 238 240 240 238 238 239 240 241 241 240 239 238 238 240 244 246 247 247 247 245 240 235 234 236 239 238 234 230 225 216 201 192 192 197 196 193 193 195 196 199 205 213 214 209 200 195 196 199 199 198 198 205 216 227 233 234 233
301 292 281 287 306 321 329 337 342 342 341 340 336 332 333 337 336 320 287 267 256 246 237 229 222 216 212 213 217 220 222 223 224 225 226 227 227 226 223 222 223 227 231 232 230 227 225 223 219 215 213 212 207 194 182 177 176 170 162 159 160 158 153 151 153 152 149 152 161 176 188 187 180 176 182 190 194 197 203 213 221 227 232 236 236
294 276 270 278 298 327 340 345 346 347 350 351 348 350 0 17 43 86 155 209 217 214 213 213 209 205 203 202 199 195 195 198 201 202 203 204 204 204 203 202 202 203 203 201 198 195 194 192 186 180 175 173 169 161 153 149 147 144 142 142 143 143 143 142 139 135 135 139 146 157 171 177 173 172 179 187 192 196 202 211 219 226 232 237 240
264 253 256 267 299 18 21 13 7 9 15 22 30 48 76 97 110 120 133 143 147 155 169 182 186 186 187 187 182 173 165 166 171 173 172 170 172 175 177 177 175 173 170 168 166 166 165 162 159 156 153 149 147 145 142 137 134 133 135 136 139 142 145 143 136 132 133 137 142 152 163 165 161 164 177 192 202 203 207 217 226 229 231 235 240
Height
1545 1548 1551 1553 1556 1558 1560 1562 1564 1567 1569 1570 1572 1574 1576 1578 1580 1582 1584 1586 1589 1590 1592 1594 1595 1597 1598 1599 1600 1602 1603 1604 1605 1606 1606 1607 1608 1609 1610 1610 1611 1611 1612 1613 1613 1614 1614 1615 1616 1616 1617 1617 1617 1618 1618 1618 1618 1618 1618 1618 1618 1618 1617 1617 1616 1614 1613 1614 1614 1613 1612 1612 1611 1610 1609 1608 1607 1606 1604 1603 1601 1599 1597 1596 1594
1542 1546 1548 1551 1553 1555 1558 1560 1562 1565 1567 1568 1570 1572 1574 1576 1578 1580 1582 1584 1587 1588 1590 1592 1594 1595 1596 1598 1599 1600 1601 1602 1604 1604 1605 1606 1606 1607 1608 1609 1609 1610 1611 1611 1612 1613 1613 1613 1614 1615 1615 1615 1616 1616 1617 1617 1617 1617 1617 1617 1617 1617 1616 1615 1615 1613 1612 1612 1612 1612 1611 1611 1610 1609 1608 1607 1606 1604 1603 1601 1600 1598 1596 1595 1593
1540 1543 1546 1548 1551 1553 1555 1558 1560 1562 1564 1566 1568 1570 1572 1574 1576 1578 1580 1582 1584 1586 1588 1590 1592 1594 1595 1596 1597 1598 1599 1601 1602 1603 1603 1604 1605 1606 1607 1607 1608 1609 1609 1610 1611 1611 1612 1612 1613 1613 1614 1614 1614 1615 1615 1615 1615 1615 1615 1615 1615 1615 1615 1614 1613 1612 1611 1610 1610 1610 1610 1609 1609 1608 1607 1606 1605 1603 1602 1600 1599 1598 1596 1594 1593
1538 1541 1543 1545 1548 1551 1553 1555 1557 1559 1561 1563 1565 1567 1569 1572 1574 1576 1578 1580 1582 1584 1586 1588 1590 1592 1593 1594 1595 1596 1598 1599 1600 1601 1601 1602 1603 1604 1605 1605 1606 1607 1607 1608 1609 1610 1610 1610 1611 1612 1612 1612 1612 1613 1613 1613 1613 1613 1613 1613 1613 1613 1613 1613 1612 1611 1610 1609 1608 1609 1608 1608 1607 1607 1606 1605 1604 1603 1601 1599 1598 1597 1596 1594 1592
1536 1538 1541 1543 1545 1548 1550 1552 1554 1556 1558 1560 1562 1565 1567 1569 1571 1573 1575 1577 1579 1582 1584 1585 1587 1589 1590 1592 1593 1595 1596 1597 1598 1599 1599 1600 1601 1602 1602 1603 1604 1605 1605 1606 1607 1608 1608 1609 1609 1610 1610 1610 1610 1610 1611 1611 1611 1611 1611 1611 1611 1611 1611 1611 1610 1609 1608 1607 1607 1607 1607 1607 1606 1606 1605 1604 1602 1601 1600 1599 1598 1596 1596 1594 1592
1534 1536 1538 1540 1542 1545 1547 1549 1551 1553 1555 1557 1560 1562 1564 1566 1568 1570 1572 1574 1577 1579 1581 1583 1584 1586 1588 1589 1591 1592 1593 1595 1595 1596 1597 1598 1599 1599 1600 1601 1602 1602 1603 1604 1605 1605 1606 1607 1607 1608 1608 1607 1608 1608 1608 1609 1609 1609 1609 1609 1609 1609 1609 1609 1608 1608 1607 1606 1606 1605 1605 1605 1604 1604 1604 1603 1601 1599 1598 1598 1597 1596 1595 1594 1592
1532 1533 1535 1537 1539 1542 1544 1546 1548 1550 1553 1555 1557 1559 1561 1563 1565 1567 1569 1571 1573 1575 1577 1579 1581 1583 1584 1586 1588 1589 1590 1592 1592 1594 1595 1595 1596 1597 1598 1599 1599 1600 1601 1602 1602 1603 1603 1604 1604 1605 1605 1605 1606 1606 1606 1606 1606 1606 1607 1607 1607 1607 1606 1607 1606 1606 1605 1605 1604 1604 1603 1603 1603 1602 1602 1602 1601 1599 1597 1596 1596 1595 1595 1594 1593
1529 1531 1533 1534 1536 1538 1540 1543 1545 1548 1550 1552 1554 1556 1557 1559 1561 1563 1565 1567 1569 1571 1573 1576 1578 1579 1581 1582 1584 1586 1587 1588 1589 1590 1591 1592 1593 1594 1595 1596 1597 1598 1599 1599 1600 1600 1601 1601 1601 1602 1602 1603 1604 1604 1604 1604 1604 1604 1605 1605 1605 1604 1604 1604 1604 1604 1603 1602 1602 1602 1601 1601 1601 1601 1601 1601 1600 1599 1597 1595 1594 1594 1593 1593 1592
1526 1528 1529 1531 1533 1535 1537 1540 1542 1544 1546 1548 1550 1552 1554 1556 1557 1559 1561 1563 1565 1567 1569 1572 1574 1575 1577 1578 1580 1581 1582 1583 1585 1586 1588 1589 1590 1591 1592 1593 1594 1595 1596 1596 1597 1597 1598 1598 1599 1599 1600 1600 1601 1601 1602 1602 1602 1602 1603 1603 1603 1602 1602 1602 1602 1601 1601 1600 1600 1600 1599 1599 1599 1599 1599 1599 1598 1597 1596 1595 1594 1593 1592 1592 1592
1523 1524 1526 1527 1530 1532 1534 1536 1538 1540 1542 1544 1546 1548 1550 1552 1554 1556 1557 1559 1561 1563 1565 1567 1569 1571 1572 1574 1576 1577 1578 1579 1580 1582 1584 1585 1587 1588 1589 1590 1591 1592 1593 1593 1594 1594 1595 1595 1596 1596 1597 1597 1598 1598 1599 1599 1599 1599 1600 1600 1600 1600 1600 1600 1600 1599 1599 1598 1598 1598 1597 1597 1597 1598 1597 1598 1597 1596 1595 1594 1593 1592 1591 1591 1591
1520 1521 1522 1524 1527 1529 1530 1532 1534 1536 1538 1540 1543 1545 1547 1549 1551 1552 1554 1556 1557 1559 1561 1562 1564 1566 1567 1569 1570 1572 1573 1574 1576 1578 1580 1581 1583 1584 1585 1587 1588 1588 1589 1590 1590 1591 1591 1592 1593 1593 1594 1594 1594 1595 1595 1596 1596 1597 1597 1598 1598 1598 1598 1597 1597 1597 1596 1596 1595 1596 1595 1594 1595 1596 1596 1596 1595 1595 1594 1593 1592 1591 1590 1589 1589
1517 1517 1519 1521 1523 1525 1527 1529 1531 1532 1534 1537 1539 1541 1544 1546 1547 1549 1550 1552 1554 1555 1557 1558 1559 1561 1563 1564 1565 1566 1567 1569 1572 1574 1575 1577 1579 1580 1581 1582 1583 1584 1585 1586 1586 1587 1588 1588 1589 1589 1590 1590 1591 1591 1592 1592 1593 1593 1594 1594 1594 1595 1595 1595 1594 1594 1594 1593 1593 1593 1592 1592 1592 1593 1593 1593 1593 1592 1592 1591 1591 1590 1589 1588 1587
1514 1515 1516 1518 1519 1521 1523 1525 1527 1529 1531 1533 1535 1538 1540 1542 1543 1545 1546 1548 1550 1552 1553 1554 1555 1557 1558 1559 1560 1561 1562 1564 1566 1568 1570 1572 1574 1576 1577 1578 1579 1580 1581 1581 1582 1583 1584 1584 1585 1585 1586 1587 1587 1588 1588 1589 1590 1590 1590 1591 1591 1591 1591 1591 1591 1591 1591 1590 1589 1589 1590 1590 1589 1590 1591 1590 1589 1589 1589 1588 1588 1587 1587 1586 1585
1511 1512 1514 1515 1517 1518 1520 1522 1523 1525 1527 1529 1531 1533 1535 1537 1539 1541 1543 1544 1546 1547 1548 1550 1551 1552 1553 1554 1555 1556 1557 1559 1561 1563 1565 1567 1569 1571 1572 1573 1574 1575 1576 1577 1577 1578 1579 1580 1580 1580 1582 1582 1583 1584 1585 1585 1586 1586 1586 1587 1587 1588 1588 1588 1588 1588 1587 1587 1586 1586 1586 1587 1586 1586 1587 1587 1586 1586 1585 1585 1584 1584 1583 1583 1583
1509 1510 1512 1513 1515 1516 1517 1518 1520 1522 1524 1526 1527 1529 1531 1533 1535 1537 1539 1540 1542 1543 1544 1546 1547 1548 1549 1550 1551 1551 1552 1554 1556 1558 1560 1562 1564 1566 1567 1568 1569 1570 1571 1572 1573 1574 1575 1575 1575 1576 1577 1578 1579 1580 1581 1581 1582 1582 1582 1583 1583 1584 1584 1584 1584 1584 1584 1584 1583 1582 1583 1583 1583 1583 1584 1584 1583 1583 1582 1582 1581 1581 1580 1580 1580
1508 1508 1510 1511 1513 1514 1515 1515 1517 1518 1520 1522 1523 1525 1527 1528 1530 1533 1534 1536 1538 1539 1540 1541 1542 1544 1545 1546 1547 1547 1547 1549 1551 1552 1555 1557 1559 1561 1562 1563 1564 1565 1566 1567 1568 1569 1570 1570 1571 1572 1573 1574 1575 1576 1576 1577 1577 1578 1578 1579 1579 1580 1580 1580 1581 1581 1580 1580 1580 1579 1579 1580 1580 1580 1580 1580 1580 1579 1579 1578 1578 1578 1577 1576 1576
1507 1507 1508 1509 1510 1511 1512 1512 1513 1515 1517 1518 1519 1521 1522 1524 1526 1529 1530 1532 1533 1535 1536 1537 1538 1540 1541 1542 1542 1542 1542 1544 1546 1548 1550 1552 1554 1556 1557 1558 1559 1560 1561 1563 1564 1564 1565 1565 1566 1567 1568 1569 1570 1571 1572 1573 1573 1574 1574 1575 1575 1575 1575 1576 1577 1577 1577 1576 1576 1576 1576 1577 1577 1577 1577 1577 1576 1576 1575 1575 1575 1575 1575 1573 1573
1505 1505 1506 1506 1507 1508 1508 1509 1510 1511 1513 1514 1515 1517 1519 1520 1522 1524 1526 1528 1529 1530 1532 1533 1534 1535 1536 1537 1538 1538 1538 1539 1542 1543 1545 1547 1549 1551 1552 1553 1554 1555 1556 1558 1559 1559 1560 1561 1562 1563 1563 1564 1566 1567 1568 1569 1569 1570 1571 1571 1571 1570 1571 1572 1572 1572 1572 1573 1572 1573 1573 1573 1573 1573 1573 1573 1573 1573 1572 1571 1572 1572 1571 1570 1569
1504 1504 1504 1504 1504 1505 1505 1505 1506 1507 1508 1510 1511 1513 1515 1517 1519 1520 1522 1523 1524 1526 1528 1529 1529 1530 1531 1532 1533 1534 1534 1535 1537 1538 1540 1542 1544 1546 1547 1548 1549 1550 1551 1553 1554 1554 1555 1557 1557 1558 1559 1560 1562 1563 1564 1565 1565 1566 1567 1567 1566 1565 1566 1568 1568 1568 1568 1568 1568 1568 1569 1569 1569 1569 1569 1570 1569 1569 1568 1568 1568 1568 1567 1566 1566
1503 1503 1503 1502 1502 1502 1503 1503 1503 1504 1504 1505 1507 1509 1511 1513 1515 1516 1518 1519 1520 1522 1523 1524 1524 1525 1526 1527 1528 1529 1530 1531 1532 1534 1535 1537 1539 1541 1543 1543 1544 1545 1547 1548 1549 1550 1551 1552 1553 1554 1555 1556 1558 1559 1560 1561 1561 1562 1563 1562 1561 1561 1563 1564 1564 1563 1563 1563 1563 1563 1564 1564 1565 1565 1565 1566 1566 1565 1565 1565 1565 1564 1563 1563 1563
1502 1501 1500 1500 1500 1499 1499 1500 1500 1501 1502 1502 1504 1505 1507 1509 1511 1512 1513 1515 1516 1517 1518 1519 1519 1520 1521 1522 1523 1524 1525 1526 1528 1529 1531 1532 1534 1536 1537 1538 1539 1540 1542 1543 1544 1545 1546 1548 1548 1550 1551 1552 1554 1555 1556 1557 1558 1558 1558 1557 1558 1559 1560 1560 1559 1559 1559 1558 1558 1558 1559 1560 1560 1561 1561 1562 1562 1562 1562 1561 1561 1561 1560 1560 1560
1500 1499 1498 1497 1497 1496 1496 1497 1497 1499 1500 1500 1501 1502 1503 1505 1507 1508 1509 1510 1511 1512 1513 1514 1514 1515 1516 1517 1518 1519 1520 1522 1523 1525 1526 1528 1529 1531 1532 1532 1534 1536 1537 1538 1539 1540 1542 1543 1544 1546 1548 1549 1550 1552 1552 1553 1553 1553 1553 1554 1555 1556 1556 1556 1555 1555 1554 1554 1554 1554 1554 1555 1556 1556 1557 1557 1558 1558 1558 1558 1557 1557 1556 1556 1557
1498 1497 1495 1494 1493 1493 1494 1495 1496 1497 1497 1498 1498 1498 1500 1501 1502 1503 1505 1506 1506 1507 1508 1509 1510 1510 1510 1512 1512 1514 1515 1517 1518 1520 1521 1523 1525 1526 1527 1528 1530 1532 1533 1533 1534 1536 1538 1539 1540 1542 1544 1545 1546 1548 1549 1549 1549 1549 1550 1551 1552 1552 1552 1552 1551 1550 1550 1550 1550 1550 1550 1551 1551 1552 1552 1553 1554 1554 1554 1554 1554 1553 1552 1553 1553
1495 1495 1493 1491 1489 1489 1490 1492 1493 1494 1494 1495 1495 1495 1496 1497 1498 1499 1500 1501 1502 1502 1503 1504 1505 1505 1505 1506 1507 1509 1510 1512 1513 1515 1516 1518 1520 1521 1522 1524 1525 1527 1528 1529 1530 1531 1533 1535 1537 1539 1540 1541 1542 1544 1545 1545 1546 1546 1547 1547 1548 1548 1547 1547 1546 1546 1546 1547 1546 1546 1547 1547 1548 1548 1549 1549 1550 1550 1550 1550 1549 1549 1549 1550 1550
1491 1491 1490 1488 1487 1486 1486 1487 1488 1489 1490 1491 1491 1491 1492 1493 1493 1494 1495 1496 1496 1497 1498 1499 1499 1499 1500 1501 1502 1504 1506 1507 1508 1510 1511 1513 1515 1516 1517 1519 1521 1523 1523 1524 1525 1527 1529 1531 1533 1534 1536 1537 1538 1539 1540 1540 1541 1542 1543 1543 1544 1543 1543 1542 1542 1542 1542 1542 1542 1543 1543 1544 1544 1545 1545 1546 1546 1545 1545 1545 1545 1546 1546 1547 1548
1487 1488 1488 1487 1485 1484 1482 1482 1483 1484 1485 1485 1486 1487 1488 1489 1489 1489 1490 1491 1491 1492 1492 1493 1494 1494 1495 1495 1497 1499 1501 1502 1503 1504 1506 1508 1509 1511 1513 1515 1517 1518 1519 1520 1521 1523 1525 1527 1528 1530 1531 1532 1533 1534 1534 1535 1536 1537 1538 1538 1538 1538 1538 1539 1539 1539 1538 1539 1539 1539 1539 1540 1541 1541 1542 1542 1541 1541 1541 1541 1541 1542 1543 1544 1545
1485 1485 1486 1484 1483 1482 1481 1479 1479 1479 1480 1480 1481 1481 1483 1484 1484 1484 1485 1486 1486 1487 1487 1488 1488 1489 1490 1490 1492 1494 1496 1497 1498 1499 1500 1502 1504 1507 1509 1510 1512 1513 1514 1515 1516 1518 1520 1522 1523 1525 1526 1527 1528 1528 1528 1529 1530 1531 1531 1532 1533 1533 1534 1535 1535 1535 1535 1535 1536 1536 1536 1538 1538 1538 1538 1538 1537 1537 1537 1537 1538 1539 1541 1542 1543
1483 1482 1483 1482 1480 1479 1478 1477 1476 1475 1475 1475 1476 1476 1477 1478 1478 1479 1479 1480 1481 1482 1482 1482 1483 1484 1485 1485 1487 1489 1491 1492 1492 1493 1495 1497 1500 1502 1504 1505 1506 1508 1509 1510 1512 1514 1516 1517 1518 1519 1520 1521 1522 1522 1522 1523 1523 1524 1526 1527 1528 1529 1530 1530 1530 1530 1530 1531 1532 1532 1533 1534 1534 1534 1535 1534 1533 1533 1533 1533 1534 1536 1538 1539 1540
1479 1479 1479 1478 1477 1476 1474 1473 1472 1471 1471 1471 1471 1471 1472 1473 1473 1473 1474 1475 1476 1477 1477 1478 1479 1480 1481 1481 1482 1484 1485 1485 1487 1490 1492 1493 1495 1497 1498 1500 1501 1503 1505 1507 1509 1511 1512 1512 1512 1513 1514 1515 1516 1516 1516 1517 1518 1519 1520 1521 1523 1524 1524 1524 1523 1524 1525 1527 1527 1528 1529 1529 1529 1530 1530 1530 1529 1530 1530 1530 1532 1534 1536 1536 1537
1475 1475 1475 1475 1473 1472 1470 1468 1468 1467 1467 1467 1466 1466 1466 1467 1468 1468 1468 1470 1472 1473 1473 1474 1475 1476 1477 1477 1478 1479 1480 1481 1484 1486 1488 1489 1491 1492 1494 1496 1497 1499 1501 1503 1505 1506 1506 1506 1506 1507 1508 1509 1509 1510 1511 1512 1513 1515 1516 1517 1517 1518 1518 1518 1518 1519 1521 1522 1523 1523 1524 1525 1525 1525 1525 1525 1525 1526 1527 1528 1529 1531 1532 1533 1534
1472 1472 1471 1470 1469 1467 1465 1464 1464 1463 1463 1462 1462 1462 1462 1462 1462 1463 1463 1464 1466 1468 1469 1469 1470 1472 1473 1472 1473 1475 1476 1478 1480 1482 1483 1485 1487 1488 1490 1492 1494 1496 1497 1499 1500 1500 1500 1500 1500 1501 1502 1503 1504 1506 1507 1509 1510 1511 1511 1512 1512 1513 1513 1513 1514 1515 1517 1517 1518 1520 1521 1521 1522 1522 1522 1522 1522 1522 1523 1525 1526 1527 1527 1528 1529
1468 1468 1467 1466 1464 1463 1461 1460 1459 1459 1459 1458 1458 1457 1457 1457 1457 1457 1458 1460 1461 1462 1463 1464 1465 1467 1468 1468 1469 1470 1472 1474 1476 1477 1479 1481 1483 1484 1486 1488 1490 1492 1494 1494 1494 1494 1494 1494 1494 1496 1497 1498 1500 1502 1503 1505 1506 1507 1507 1507 1507 1508 1509 1509 1510 1512 1512 1513 1514 1516 1517 1518 1519 1519 1519 1519 1519 1520 1521 1521 1522 1523 1524 1524 1525
1465 1464 1463 1462 1460 1459 1458 1457 1456 1455 1455 1455 1454 1453 1453 1452 1452 1452 1454 1455 1456 1456 1457 1458 1459 1461 1463 1463 1464 1465 1467 1470 1471 1473 1475 1477 1479 1481 1483 1485 1486 1488 1489 1488 1488 1488 1488 1488 1489 1491 1492 1493 1495 1497 1499 1500 1502 1503 1503 1503 1503 1504 1505 1506 1507 1508 1509 1509 1510 1512 1513 1514 1515 1515 1515 1516 1517 1518 1519 1520 1521 1522 1522 1523 1523
1462 1461 1460 1458 1457 1456 1455 1454 1453 1452 1451 1451 1450 1449 1449 1448 1448 1448 1449 1449 1450 1450 1451 1452 1453 1455 1457 1458 1459 1461 1463 1465 1467 1468 1470 1473 1475 1477 1479 1480 1481 1482 1483 1482 1482 1482 1483 1483 1484 1486 1487 1489 1490 1492 1493 1495 1497 1498 1499 1499 1499 1500 1501 1502 1503 1504 1505 1505 1506 1507 1508 1510 1510 1511 1512 1512 1514 1516 1516 1516 1516 1517 1519 1521 1522
1458 1457 1456 1455 1453 1451 1450 1450 1449 1447 1446 1446 1445 1445 1445 1445 1444 1444 1444 1444 1445 1445 1446 1447 1448 1451 1452 1453 1455 1457 1459 1461 1462 1464 1466 1468 1470 1473 1474 1475 1475 1476 1476 1476 1476 1477 1478 1478 1478 1480 1482 1484 1485 1486 1488 1490 1491 1493 1494 1495 1496 1496 1498 1498 1498 1499 1500 1501 1502 1502 1503 1504 1505 1505 1507 1508 1510 1511 1511 1510 1509 1510 1513 1517 1518
1453 1452 1452 1450 1448 1446 1445 1444 1443 1442 1441 1441 1440 1440 1440 1440 1440 1440 1440 1440 1441 1441 1441 1442 1444 1446 1447 1448 1450 1452 1454 1456 1458 1460 1461 1463 1465 1467 1468 1468 1468 1469 1470 1471 1472 1472 1473 1474 1474 1476 1478 1479 1480 1481 1483 1484 1486 1488 1489 1491 1491 1492 1493 1493 1494 1495 1496 1496 1497 1497 1498 1498 1499 1500 1502 1503 1505 1506 1506 1506 1505 1505 1507 1512 1513
1447 1446 1445 1444 1443 1441 1440 1439 1438 1437 1436 1435 1435 1435 1435 1436 1436 1436 1436 1436 1437 1437 1437 1438 1439 1441 1442 1442 1444 1446 1449 1451 1453 1455 1456 1458 1459 1460 1461 1461 1463 1464 1465 1466 1468 1469 1469 1470 1471 1472 1474 1475 1476 1477 1479 1480 1482 1483 1484 1485 1486 1487 1487 1487 1488 1490 1490 1491 1491 1492 1493 1493 1494 1496 1497 1498 1500 1501 1501 1502 1502 1501 1503 1506 1508
1443 1442 1441 1439 1438 1436 1435 1434 1433 1432 1431 1430 1430 1430 1430 1431 1432 1432 1432 1432 1433 1433 1433 1434 1435 1436 1436 1437 1439 1442 1444 1446 1448 1449 1450 1451 1453 1454 1455 1457 1458 1460 1461 1462 1463 1465 1465 1466 1467 1469 1470 1471 1472 1473 1475 1476 1478 1480 1480 1480 1480 1480 1481 1482 1483 1484 1484 1485 1486 1486 1487 1489 1490 1491 1492 1493 1495 1496 1497 1497 1497 1497 1498 1500 1502
1440 1439 1438 1436 1434 1432 1431 1430 1428 1427 1426 1426 1425 1425 1426 1426 1427 1428 1428 1428 1429 1429 1430 1430 1431 1431 1432 1433 1435 1438 1439 1441 1442 1443 1445 1446 1447 1449 1451 1453 1454 1455 1457 1458 1460 1460 1461 1462 1463 1465 1466 1467 1468 1469 1471 1472 1474 1476 1476 1475 1474 1475 1476 1477 1477 1477 1478 1479 1480 1480 1481 1483 1485 1486 1487 1488 1489 1490 1492 1492 1492 1493 1493 1495 1496
1437 1435 1434 1432 1430 1428 1427 1426 1424 1423 1422 1421 1421 1421 1421 1422 1422 1423 1424 1424 1424 1425 1426 1426 1426 1427 1428 1430 1432 1434 1435 1436 1437 1439 1441 1442 1443 1445 1446 1448 1450 1452 1453 1454 1455 1455 1456 1457 1458 1460 1462 1463 1464 1465 1467 1468 1470 1471 1470 1469 1468 1470 1471 1471 1471 1471 1472 1473 1474 1474 1476 1478 1480 1481 1482 1482 1483 1484 1486 1487 1487 1488 1489 1490 1493
1432 1431 1429 1427 1425 1424 1423 1422 1420 1419 1418 1417 1417 1417 1417 1417 1417 1418 1419 1419 1420 1420 1421 1422 1422 1423 1426 1427 1428 1429 1431 1431 1433 1435 1436 1437 1439 1440 1442 1444 1446 1448 1449 1450 1450 1450 1451 1452 1453 1455 1457 1458 1460 1460 1461 1462 1463 1465 1465 1464 1464 1466 1466 1465 1465 1466 1466 1467 1468 1469 1471 1473 1475 1476 1477 1477 1478 1479 1481 1482 1483 1484 1485 1487 1490
1428 1426 1424 1423 1421 1420 1419 1418 1416 1415 1414 1414 1414 1414 1414 1413 1412 1412 1413 1414 1415 1416 1417 1417 1418 1420 1422 1423 1424 1425 1426 1427 1428 1430 1431 1432 1434 1435 1437 1439 1441 1443 1444 1445 1446 1446 1447 1448 1449 1450 1452 1453 1454 1455 1455 1456 1457 1459 1459 1459 1460 1462 1461 1460 1459 1459 1460 1461 1462 1464 1467 1469 1471 1472 1473 1473 1474 1475 1476 1478 1479 1480 1482 1484 1487
1424 1422 1421 1419 1418 1417 1416 1414 1412 1411 1410 1410 1410 1410 1410 1409 1408 1408 1409 1410 1411 1412 1413 1414 1415 1416 1417 1419 1420 1421 1421 1422 1423 1425 1426 1427 1429 1430 1432 1434 1436 1437 1438 1439 1441 1441 1443 1444 1445 1446 1447 1448 1449 1450 1451 1452 1453 1454 1455 1456 1457 1457 1456 1454 1454 1454 1454 1456 1458 1461 1463 1465 1466 1467 1468 1469 1470 1471 1473 1474 1476 1477 1479 1481 1484
1420 1419 1418 1417 1415 1414 1412 1410 1408 1407 1407 1407 1407 1406 1405 1404 1403 1404 1404 1405 1406 1408 1409 1410 1411 1412 1413 1414 1415 1416 1417 1418 1419 1421 1421 1422 1423 1425 1427 1428 1429 1431 1432 1433 1434 1436 1438 1440 1441 1442 1442 1443 1444 1445 1446 1447 1448 1450 1451 1452 1453 1453 1451 1449 1448 1449 1450 1452 1456 1459 1461 1461 1461 1461 1462 1462 1464 1466 1469 1471 1473 1474 1477 1479 1481
1417 1416 1416 1414 1413 1411 1409 1407 1405 1405 1404 1404 1404 1403 1401 1400 1399 1399 1400 1402 1403 1404 1405 1406 1407 1408 1409 1410 1411 1411 1412 1414 1415 1416 1417 1418 1418 1420 1421 1422 1423 1424 1425 1426 1428 1430 1432 1435 1436 1437 1436 1437 1438 1439 1441 1442 1443 1444 1445 1446 1448 1449 1447 1445 1444 1446 1448 1451 1454 1457 1458 1459 1459 1459 1460 1460 1461 1463 1466 1468 1470 1473 1475 1477 1480
1415 1414 1413 1412 1410 1408 1407 1405 1403 1403 1402 1401 1401 1399 1397 1395 1394 1394 1396 1397 1399 1400 1401 1402 1403 1404 1405 1406 1407 1408 1409 1410 1411 1412 1413 1414 1414 1415 1416 1417 1418 1418 1419 1421 1423 1425 1428 1430 1432 1431 1431 1431 1433 1434 1435 1437 1438 1439 1440 1441 1442 1444 1444 1443 1444 1445 1447 1449 1452 1456 1458 1459 1460 1461 1462 1463 1463 1463 1464 1466 1468 1471 1474 1476 1478
1413 1412 1412 1410 1408 1406 1404 1403 1402 1401 1400 1399 1398 1396 1394 1391 1390 1390 1391 1393 1394 1395 1395 1396 1397 1398 1400 1401 1402 1403 1404 1405 1406 1407 1408 1409 1409 1410 1412 1413 1414 1414 1415 1416 1418 1421 1424 1426 1426 1427 1427 1427 1429 1430 1431 1433 1434 1435 1437 1438 1439 1440 1441 1442 1443 1444 1444 1446 1450 1455 1458 1459 1459 1460 1462 1464 1464 1463 1463 1464 1467 1470 1472 1474 1476
1411 1410 1410 1408 1406 1404 1402 1401 1400 1400 1399 1398 1396 1394 1392 1389 1387 1387 1389 1390 1391 1391 1391 1392 1393 1394 1396 1397 1398 1399 1400 1401 1402 1403 1403 1404 1405 1406 1408 1409 1410 1411 1412 1413 1414 1417 1420 1421 1422 1422 1423 1424 1426 1428 1429 1431 1433 1434 1435 1435 1436 1437 1438 1439 1440 1440 1441 1444 1450 1455 1458 1458 1457 1457 1459 1462 1463 1462 1461 1462 1466 1469 1471 1473 1474
1409 1408 1408 1406 1404 1402 1401 1400 1399 1399 1398 1396 1395 1394 1391 1388 1386 1386 1387 1388 1389 1389 1389 1389 1390 1391 1393 1394 1396 1397 1397 1398 1399 1400 1401 1401 1402 1403 1404 1406 1407 1408 1409 1410 1412 1414 1416 1417 1418 1419 1419 1419 1422 1426 1429 1431 1432 1433 1434 1433 1433 1434 1435 1436 1437 1437 1438 1442 1448 1454 1458 1459 1458 1457 1458 1460 1459 1457 1457 1460 1464 1468 1471 1472 1474
1408 1407 1406 1405 1403 1401 1400 1399 1399 1399 1397 1396 1395 1393 1391 1388 1386 1385 1386 1387 1388 1388 1388 1389 1389 1390 1391 1393 1394 1396 1397 1397 1398 1398 1399 1400 1401 1401 1402 1403 1404 1406 1407 1409 1411 1412 1414 1414 1416 1417 1417 1417 1420 1424 1429 1431 1433 1435 1436 1435 1434 1434 1436 1436 1434 1434 1436 1442 1447 1452 1455 1457 1456 1456 1457 1458 1457 1456 1457 1460 1464 1467 1470 1473 1474
1408 1407 1406 1404 1403 1401 1400 1400 1399 1399 1398 1396 1395 1394 1392 1389 1386 1385 1385 1386 1387 1388 1388 1388 1388 1389 1390 1391 1392 1394 1396 1398 1398 1398 1398 1399 1400 1401 1401 1403 1404 1406 1408 1409 1410 1411 1412 1413 1414 1415 1417 1417 1419 1424 1429 1432 1434 1436 1438 1439 1438 1438 1438 1435 1431 1430 1434 1439 1445 1449 1451 1452 1452 1452 1453 1455 1457 1457 1459 1461 1463 1467 1469 1471 1473